Tracking 19286 objects as of 18-Nov-2018
HD Live streaming from Space Station
objects crossing your sky now

OPS 7218 (TRANSIT 16)

Track OPS 7218 (TRANSIT 16) now!
10-day predictions
OPS 7218 (TRANSIT 16) is classified as:


NORAD ID: 2807
Int'l Code: 1967-048A
Perigee: 1,063.2 km
Apogee: 1,094.1 km
Inclination: 89.6 °
Period: 106.7 minutes
Semi major axis: 7449 km
RCS: 1.5463 m2 (large)
Launch date: May 18, 1967
Source: United States (US)
Launch site: AIR FORCE WESTERN TEST RANGE (AFWTR)
aabbcc
Your satellite tracking list
Your tracking list is empty




NASA's NSSDC Master Catalog

Two Line Element Set (TLE):
1  2807U 67048A   18321.36549137 +.00000057 +00000-0 +73122-4 0  9996
2  2807 089.6218 084.9166 0020746 025.4974 026.8867 13.50193912534347
Source of the keplerian elements: AFSPC